Time,TemperatureF,DewpointF,PressureIn,WindDirection,WindDirectionDegrees,WindSpeedMPH,WindSpeedGustMPH,Humidity,HourlyPrecipIn,Conditions,Clouds,dailyrainin,SoftwareType,DateUTC
2013-06-01 00:00:00,50.5,44.6,29.69,West,278,14.0,14.0,80,0.00,,,0.01,Wunderground v.1.13,2013-06-01 06:00:00,
2013-06-01 00:05:00,50.4,44.5,29.69,NW,325,14.0,24.0,80,0.00,,,0.01,Wunderground v.1.13,2013-06-01 06:05:00,
2013-06-01 00:10:00,50.4,44.5,29.69,NW,320,16.0,18.0,80,0.00,,,0.01,Wunderground v.1.13,2013-06-01 06:10:00,
2013-06-01 00:14:00,50.4,44.5,29.69,NNW,340,15.0,15.0,80,0.00,,,0.01,Wunderground v.1.13,2013-06-01 06:14:00,
2013-06-01 00:19:00,50.4,44.5,29.70,NW,326,13.0,13.0,80,0.00,,,0.01,Wunderground v.1.13,2013-06-01 06:19:00,
2013-06-01 00:25:00,50.5,44.6,29.70,NW,315,13.0,16.0,80,0.00,,,0.01,Wunderground v.1.13,2013-06-01 06:25:00,
2013-06-01 00:34:00,50.4,44.5,29.71,NW,323,12.0,12.0,80,0.00,,,0.01,Wunderground v.1.13,2013-06-01 06:34:00,
2013-06-01 00:39:00,50.4,44.5,29.71,NNW,338,11.0,11.0,80,0.00,,,0.01,Wunderground v.1.13,2013-06-01 06:39:00,
2013-06-01 00:44:00,50.4,44.5,29.71,NW,317,9.0,14.0,80,0.00,,,0.01,Wunderground v.1.13,2013-06-01 06:44:00,
2013-06-01 00:49:00,50.5,44.6,29.71,NW,325,10.0,10.0,80,0.00,,,0.01,Wunderground v.1.13,2013-06-01 06:49:00,
2013-06-01 00:55:00,50.7,44.4,29.71,NNW,331,10.0,14.0,79,0.00,,,0.01,Wunderground v.1.13,2013-06-01 06:55:00,
2013-06-01 01:05:00,50.8,44.2,29.72,NW,317,11.0,14.0,78,0.00,,,0.01,Wunderground v.1.13,2013-06-01 07:05:00,
2013-06-01 01:14:00,50.8,44.2,29.72,NW,304,12.0,12.0,78,0.00,,,0.01,Wunderground v.1.13,2013-06-01 07:14:00,
2013-06-01 01:20:00,50.8,44.2,29.71,NW,304,11.0,14.0,78,0.00,,,0.01,Wunderground v.1.13,2013-06-01 07:20:00,
2013-06-01 01:24:00,50.8,43.8,29.71,NW,315,11.0,19.0,77,0.00,,,0.01,Wunderground v.1.13,2013-06-01 07:24:00,
2013-06-01 01:29:00,51.0,44.0,29.71,NW,311,13.0,13.0,77,0.00,,,0.01,Wunderground v.1.13,2013-06-01 07:29:00,
2013-06-01 01:35:00,51.0,44.0,29.71,NNW,327,11.0,11.0,77,0.00,,,0.01,Wunderground v.1.13,2013-06-01 07:35:00,
2013-06-01 01:40:00,51.0,44.0,29.71,WNW,296,10.0,18.0,77,0.00,,,0.01,Wunderground v.1.13,2013-06-01 07:40:00,
2013-06-01 01:45:00,51.0,44.0,29.71,WNW,299,12.0,12.0,77,0.00,,,0.01,Wunderground v.1.13,2013-06-01 07:45:00,
2013-06-01 01:49:00,51.0,44.0,29.71,WNW,288,12.0,12.0,77,0.00,,,0.01,Wunderground v.1.13,2013-06-01 07:49:00,
2013-06-01 01:54:00,51.0,44.0,29.71,NW,311,11.0,14.0,77,0.00,,,0.01,Wunderground v.1.13,2013-06-01 07:54:00,
2013-06-01 02:00:00,51.0,44.0,29.71,NNW,333,11.0,14.0,77,0.00,,,0.01,Wunderground v.1.13,2013-06-01 08:00:00,
2013-06-01 02:10:00,50.8,43.8,29.71,West,280,11.0,14.0,77,0.00,,,0.01,Wunderground v.1.13,2013-06-01 08:10:00,
2013-06-01 02:15:00,50.8,43.8,29.71,NW,304,10.0,14.0,77,0.00,,,0.01,Wunderground v.1.13,2013-06-01 08:15:00,
2013-06-01 02:19:00,50.8,43.8,29.73,NW,324,10.0,14.0,77,0.00,,,0.01,Wunderground v.1.13,2013-06-01 08:19:00,
2013-06-01 02:24:00,50.8,43.8,29.73,NW,322,9.0,14.0,77,0.00,,,0.01,Wunderground v.1.13,2013-06-01 08:24:00,
2013-06-01 02:30:00,50.8,43.8,29.73,NW,309,9.0,14.0,77,0.00,,,0.01,Wunderground v.1.13,2013-06-01 08:30:00,
2013-06-01 02:35:00,50.8,43.8,29.73,North,351,10.0,14.0,77,0.00,,,0.01,Wunderground v.1.13,2013-06-01 08:35:00,
2013-06-01 02:40:00,50.8,44.2,29.73,WNW,284,8.0,8.0,78,0.00,,,0.01,Wunderground v.1.13,2013-06-01 08:40:00,
2013-06-01 02:44:00,51.0,44.0,29.73,West,279,9.0,9.0,77,0.00,,,0.01,Wunderground v.1.13,2013-06-01 08:44:00,
2013-06-01 02:49:00,51.0,44.4,29.73,NW,323,9.0,15.0,78,0.00,,,0.01,Wunderground v.1.13,2013-06-01 08:49:00,
2013-06-01 02:54:00,51.1,44.1,29.73,NW,315,10.0,10.0,77,0.00,,,0.01,Wunderground v.1.13,2013-06-01 08:54:00,
2013-06-01 03:00:00,51.1,44.1,29.73,WNW,301,11.0,20.0,77,0.00,,,0.01,Wunderground v.1.13,2013-06-01 09:00:00,
2013-06-01 03:05:00,51.1,44.1,29.73,WNW,296,10.0,15.0,77,0.00,,,0.01,Wunderground v.1.13,2013-06-01 09:05:00,
2013-06-01 03:15:00,51.0,44.4,29.73,NW,309,9.0,14.0,78,0.00,,,0.01,Wunderground v.1.13,2013-06-01 09:15:00,
2013-06-01 03:20:00,51.0,44.4,29.73,NW,310,10.0,24.0,78,0.00,,,0.01,Wunderground v.1.13,2013-06-01 09:20:00,
2013-06-01 03:29:00,51.0,44.4,29.73,NNE,13,11.0,14.0,78,0.00,,,0.01,Wunderground v.1.13,2013-06-01 09:29:00,
2013-06-01 03:34:00,51.0,44.4,29.74,NNW,337,10.0,14.0,78,0.00,,,0.01,Wunderground v.1.13,2013-06-01 09:34:00,
2013-06-01 03:40:00,51.0,44.4,29.74,NNW,345,11.0,11.0,78,0.00,,,0.01,Wunderground v.1.13,2013-06-01 09:40:00,
2013-06-01 03:45:00,51.0,44.4,29.74,WNW,294,14.0,14.0,78,0.00,,,0.01,Wunderground v.1.13,2013-06-01 09:45:00,
2013-06-01 03:50:00,51.0,44.4,29.74,NW,323,13.0,14.0,78,0.00,,,0.01,Wunderground v.1.13,2013-06-01 09:50:00,
2013-06-01 03:55:00,51.0,44.4,29.74,NW,313,13.0,13.0,78,0.00,,,0.01,Wunderground v.1.13,2013-06-01 09:55:00,
2013-06-01 04:04:00,51.0,44.7,29.75,NW,318,11.0,16.0,79,0.00,,,0.01,Wunderground v.1.13,2013-06-01 10:04:00,
2013-06-01 04:10:00,50.8,44.9,29.75,NW,323,12.0,12.0,80,0.00,,,0.01,Wunderground v.1.13,2013-06-01 10:10:00,
2013-06-01 04:19:00,50.5,44.9,29.75,NW,304,11.0,14.0,81,0.00,,,0.01,Wunderground v.1.13,2013-06-01 10:19:00,
2013-06-01 04:24:00,50.5,45.2,29.75,NW,326,11.0,14.0,82,0.00,,,0.01,Wunderground v.1.13,2013-06-01 10:24:00,
2013-06-01 04:30:00,50.4,45.1,29.75,NW,326,11.0,23.0,82,0.00,,,0.01,Wunderground v.1.13,2013-06-01 10:30:00,
2013-06-01 04:39:00,50.5,45.2,29.76,NNW,344,11.0,24.0,82,0.00,,,0.01,Wunderground v.1.13,2013-06-01 10:39:00,
2013-06-01 04:44:00,50.5,45.5,29.76,NNE,14,10.0,10.0,83,0.00,,,0.01,Wunderground v.1.13,2013-06-01 10:44:00,
2013-06-01 04:49:00,50.4,45.4,29.77,WNW,292,12.0,12.0,83,0.00,,,0.01,Wunderground v.1.13,2013-06-01 10:49:00,
2013-06-01 04:55:00,50.2,45.6,29.77,NNW,329,11.0,11.0,84,0.00,,,0.01,Wunderground v.1.13,2013-06-01 10:55:00,
2013-06-01 04:59:00,50.1,45.8,29.77,NW,315,10.0,16.0,85,0.00,,,0.01,Wunderground v.1.13,2013-06-01 10:59:00,
2013-06-01 05:04:00,49.9,45.6,29.77,NNW,337,12.0,12.0,85,0.00,,,0.01,Wunderground v.1.13,2013-06-01 11:04:00,
2013-06-01 05:09:00,49.9,45.9,29.77,NW,315,10.0,10.0,86,0.00,,,0.01,Wunderground v.1.13,2013-06-01 11:09:00,
2013-06-01 05:15:00,49.9,45.6,29.77,NNW,344,9.0,15.0,85,0.00,,,0.01,Wunderground v.1.13,2013-06-01 11:15:00,
2013-06-01 05:20:00,50.1,45.5,29.77,NW,325,12.0,12.0,84,0.00,,,0.01,Wunderground v.1.13,2013-06-01 11:20:00,
2013-06-01 05:25:00,50.2,45.2,29.77,NNW,335,13.0,13.0,83,0.00,,,0.01,Wunderground v.1.13,2013-06-01 11:25:00,
2013-06-01 05:29:00,50.2,44.9,29.77,NNE,28,11.0,11.0,82,0.00,,,0.01,Wunderground v.1.13,2013-06-01 11:29:00,
2013-06-01 05:34:00,50.2,44.6,29.77,WNW,293,9.0,9.0,81,0.00,,,0.01,Wunderground v.1.13,2013-06-01 11:34:00,
2013-06-01 05:44:00,50.4,44.5,29.77,North,350,15.0,15.0,80,0.00,,,0.02,Wunderground v.1.13,2013-06-01 11:44:00,
2013-06-01 05:50:00,50.2,44.3,29.78,NNW,331,12.0,12.0,80,0.00,,,0.02,Wunderground v.1.13,2013-06-01 11:50:00,
2013-06-01 05:55:00,50.4,44.1,29.78,NNW,339,13.0,18.0,79,0.00,,,0.02,Wunderground v.1.13,2013-06-01 11:55:00,
2013-06-01 06:04:00,50.5,44.2,29.79,NNW,330,13.0,17.0,79,0.00,,,0.02,Wunderground v.1.13,2013-06-01 12:04:00,
2013-06-01 06:09:00,50.7,44.4,29.79,NNW,327,14.0,14.0,79,0.00,,,0.02,Wunderground v.1.13,2013-06-01 12:09:00,
2013-06-01 06:14:00,50.7,44.4,29.79,NNW,327,13.0,15.0,79,0.00,,,0.02,Wunderground v.1.13,2013-06-01 12:14:00,
2013-06-01 06:20:00,50.7,44.4,29.79,NNW,340,12.0,14.0,79,0.00,,,0.02,Wunderground v.1.13,2013-06-01 12:20:00,
2013-06-01 06:25:00,50.7,43.8,29.79,NNW,338,13.0,14.0,77,0.00,,,0.02,Wunderground v.1.13,2013-06-01 12:25:00,
2013-06-01 06:30:00,50.8,44.2,29.79,NW,325,13.0,13.0,78,0.00,,,0.02,Wunderground v.1.13,2013-06-01 12:30:00,
2013-06-01 06:34:00,50.8,43.8,29.80,North,351,13.0,13.0,77,0.00,,,0.02,Wunderground v.1.13,2013-06-01 12:34:00,
2013-06-01 06:39:00,51.0,44.0,29.80,NNW,337,14.0,14.0,77,0.00,,,0.02,Wunderground v.1.13,2013-06-01 12:39:00,
2013-06-01 06:44:00,51.4,43.7,29.80,NNW,333,15.0,15.0,75,0.00,,,0.02,Wunderground v.1.13,2013-06-01 12:44:00,
2013-06-01 06:49:00,51.9,44.2,29.81,NNE,29,14.0,19.0,75,0.00,,,0.02,Wunderground v.1.13,2013-06-01 12:49:00,
2013-06-01 06:55:00,52.0,44.0,29.81,NNW,340,12.0,24.0,74,0.00,,,0.02,Wunderground v.1.13,2013-06-01 12:55:00,
2013-06-01 07:04:00,52.0,44.3,29.81,North,350,14.0,14.0,75,0.00,,,0.02,Wunderground v.1.13,2013-06-01 13:04:00,
2013-06-01 07:14:00,51.3,43.6,29.81,NNW,342,14.0,14.0,75,0.00,,,0.02,Wunderground v.1.13,2013-06-01 13:14:00,
2013-06-01 07:20:00,51.6,43.2,29.81,North,360,15.0,17.0,73,0.00,,,0.02,Wunderground v.1.13,2013-06-01 13:20:00,
2013-06-01 07:25:00,51.7,43.3,29.81,NNW,336,17.0,17.0,73,0.00,,,0.02,Wunderground v.1.13,2013-06-01 13:25:00,
2013-06-01 07:29:00,52.2,43.4,29.81,North,351,15.0,20.0,72,0.00,,,0.02,Wunderground v.1.13,2013-06-01 13:29:00,
2013-06-01 07:39:00,52.6,43.5,29.83,NW,319,14.0,16.0,71,0.00,,,0.02,Wunderground v.1.13,2013-06-01 13:39:00,
2013-06-01 07:44:00,52.9,43.7,29.83,North,350,14.0,26.0,71,0.00,,,0.02,Wunderground v.1.13,2013-06-01 13:44:00,
2013-06-01 07:50:00,53.1,43.9,29.84,NNW,331,13.0,13.0,71,0.00,,,0.02,Wunderground v.1.13,2013-06-01 13:50:00,
2013-06-01 07:55:00,53.3,44.1,29.84,NW,313,12.0,14.0,71,0.00,,,0.02,Wunderground v.1.13,2013-06-01 13:55:00,
2013-06-01 08:00:00,53.8,43.9,29.84,North,360,10.0,16.0,69,0.00,,,0.02,Wunderground v.1.13,2013-06-01 14:00:00,
2013-06-01 08:04:00,53.8,43.9,29.84,NNW,339,11.0,15.0,69,0.00,,,0.02,Wunderground v.1.13,2013-06-01 14:04:00,
2013-06-01 08:09:00,53.5,43.6,29.84,NNE,13,12.0,14.0,69,0.00,,,0.02,Wunderground v.1.13,2013-06-01 14:09:00,
2013-06-01 08:14:00,53.2,43.7,29.84,North,351,11.0,11.0,70,0.00,,,0.02,Wunderground v.1.13,2013-06-01 14:14:00,
2013-06-01 08:20:00,52.9,43.0,29.85,NNW,328,13.0,14.0,69,0.00,,,0.02,Wunderground v.1.13,2013-06-01 14:20:00,
2013-06-01 08:30:00,52.8,43.3,29.85,NW,321,12.0,14.0,70,0.00,,,0.02,Wunderground v.1.13,2013-06-01 14:30:00,
2013-06-01 08:35:00,52.9,43.4,29.86,North,351,12.0,12.0,70,0.00,,,0.02,Wunderground v.1.13,2013-06-01 14:35:00,
2013-06-01 08:39:00,53.2,43.7,29.86,NNW,329,12.0,12.0,70,0.00,,,0.02,Wunderground v.1.13,2013-06-01 14:39:00,
2013-06-01 08:44:00,53.3,43.8,29.86,NNW,344,10.0,14.0,70,0.00,,,0.02,Wunderground v.1.13,2013-06-01 14:44:00,
2013-06-01 08:50:00,53.3,43.8,29.88,NNW,343,10.0,14.0,70,0.00,,,0.02,Wunderground v.1.13,2013-06-01 14:50:00,
2013-06-01 08:55:00,53.2,43.3,29.88,NW,321,13.0,13.0,69,0.00,,,0.02,Wunderground v.1.13,2013-06-01 14:55:00,
2013-06-01 09:00:00,53.2,43.7,29.88,NNW,348,12.0,18.0,70,0.00,,,0.02,Wunderground v.1.13,2013-06-01 15:00:00,
2013-06-01 09:05:00,52.9,43.4,29.88,NW,310,12.0,12.0,70,0.00,,,0.02,Wunderground v.1.13,2013-06-01 15:05:00,
2013-06-01 09:09:00,52.8,44.0,29.88,NNW,340,13.0,18.0,72,0.00,,,0.02,Wunderground v.1.13,2013-06-01 15:09:00,
2013-06-01 09:14:00,52.6,43.8,29.88,NNW,343,13.0,13.0,72,0.00,,,0.02,Wunderground v.1.13,2013-06-01 15:14:00,
2013-06-01 09:19:00,52.9,44.1,29.88,NNW,330,13.0,15.0,72,0.00,,,0.02,Wunderground v.1.13,2013-06-01 15:19:00,
2013-06-01 09:25:00,52.8,43.7,29.88,NW,324,13.0,19.0,71,0.00,,,0.02,Wunderground v.1.13,2013-06-01 15:25:00,
2013-06-01 09:30:00,53.1,42.8,29.88,NNW,346,15.0,15.0,68,0.00,,,0.02,Wunderground v.1.13,2013-06-01 15:30:00,
2013-06-01 09:35:00,53.3,43.4,29.88,NNW,339,13.0,13.0,69,0.00,,,0.02,Wunderground v.1.13,2013-06-01 15:35:00,
2013-06-01 09:39:00,53.3,43.0,29.88,NW,323,11.0,11.0,68,0.00,,,0.02,Wunderground v.1.13,2013-06-01 15:39:00,
2013-06-01 09:45:00,53.6,43.3,29.88,North,351,10.0,15.0,68,0.00,,,0.02,Wunderground v.1.13,2013-06-01 15:45:00,
2013-06-01 09:50:00,53.3,43.0,29.89,NW,309,10.0,10.0,68,0.00,,,0.02,Wunderground v.1.13,2013-06-01 15:50:00,
2013-06-01 09:55:00,53.5,42.8,29.89,NNW,338,12.0,15.0,67,0.00,,,0.02,Wunderground v.1.13,2013-06-01 15:55:00,
2013-06-01 10:00:00,53.5,42.8,29.89,NNW,337,12.0,12.0,67,0.00,,,0.02,Wunderground v.1.13,2013-06-01 16:00:00,
2013-06-01 10:05:00,53.5,43.2,29.90,NNW,340,9.0,14.0,68,0.00,,,0.02,Wunderground v.1.13,2013-06-01 16:05:00,
2013-06-01 10:14:00,52.9,43.0,29.90,NW,307,13.0,17.0,69,0.00,,,0.02,Wunderground v.1.13,2013-06-01 16:14:00,
2013-06-01 10:19:00,52.9,43.0,29.91,NNW,336,12.0,12.0,69,0.00,,,0.02,Wunderground v.1.13,2013-06-01 16:19:00,
2013-06-01 10:25:00,53.2,42.9,29.91,NNW,331,10.0,17.0,68,0.00,,,0.02,Wunderground v.1.13,2013-06-01 16:25:00,
2013-06-01 10:30:00,53.3,42.6,29.91,North,351,10.0,14.0,67,0.00,,,0.02,Wunderground v.1.13,2013-06-01 16:30:00,
2013-06-01 10:40:00,54.1,42.6,29.91,NNW,335,13.0,13.0,65,0.00,,,0.02,Wunderground v.1.13,2013-06-01 16:40:00,
2013-06-01 10:45:00,54.7,42.8,29.91,NNW,340,14.0,21.0,64,0.00,,,0.02,Wunderground v.1.13,2013-06-01 16:45:00,
2013-06-01 10:50:00,55.6,42.8,29.90,NNE,24,13.0,20.0,62,0.00,,,0.02,Wunderground v.1.13,2013-06-01 16:50:00,
2013-06-01 10:55:00,56.7,43.8,29.90,NW,314,14.0,14.0,62,0.00,,,0.02,Wunderground v.1.13,2013-06-01 16:55:00,
2013-06-01 11:00:00,56.6,45.0,29.90,NNW,327,14.0,15.0,65,0.00,,,0.02,Wunderground v.1.13,2013-06-01 17:00:00,
2013-06-01 11:04:00,57.2,45.1,29.90,NNW,346,12.0,12.0,64,0.00,,,0.02,Wunderground v.1.13,2013-06-01 17:04:00,
2013-06-01 11:14:00,58.7,43.5,29.90,NNW,331,11.0,14.0,57,0.00,,,0.02,Wunderground v.1.13,2013-06-01 17:14:00,
2013-06-01 11:20:00,59.0,44.2,29.90,NNW,333,13.0,13.0,58,0.00,,,0.02,Wunderground v.1.13,2013-06-01 17:20:00,
2013-06-01 11:25:00,58.6,44.3,29.90,NNW,336,13.0,15.0,59,0.00,,,0.02,Wunderground v.1.13,2013-06-01 17:25:00,
2013-06-01 11:29:00,59.6,43.4,29.90,NW,321,12.0,12.0,55,0.00,,,0.02,Wunderground v.1.13,2013-06-01 17:29:00,
2013-06-01 11:35:00,59.9,43.7,29.91,NW,320,12.0,12.0,55,0.00,,,0.02,Wunderground v.1.13,2013-06-01 17:35:00,
2013-06-01 11:40:00,60.2,44.0,29.91,NW,321,14.0,14.0,55,0.00,,,0.02,Wunderground v.1.13,2013-06-01 17:40:00,
2013-06-01 11:45:00,60.9,43.1,29.91,North,360,13.0,13.0,52,0.00,,,0.02,Wunderground v.1.13,2013-06-01 17:45:00,
2013-06-01 11:50:00,61.3,43.0,29.90,North,351,11.0,18.0,51,0.00,,,0.02,Wunderground v.1.13,2013-06-01 17:50:00,
2013-06-01 11:54:00,60.9,42.6,29.90,North,10,12.0,17.0,51,0.00,,,0.02,Wunderground v.1.13,2013-06-01 17:54:00,
2013-06-01 11:59:00,61.0,42.7,29.90,North,351,14.0,19.0,51,0.00,,,0.02,Wunderground v.1.13,2013-06-01 17:59:00,
2013-06-01 12:05:00,61.0,42.7,29.91,NNW,344,13.0,13.0,51,0.00,,,0.02,Wunderground v.1.13,2013-06-01 18:05:00,
2013-06-01 12:15:00,61.6,42.2,29.91,North,351,13.0,13.0,49,0.00,,,0.02,Wunderground v.1.13,2013-06-01 18:15:00,
2013-06-01 12:19:00,61.3,42.0,29.91,NE,41,14.0,16.0,49,0.00,,,0.02,Wunderground v.1.13,2013-06-01 18:19:00,
2013-06-01 12:25:00,61.6,42.8,29.91,NNE,20,14.0,14.0,50,0.00,,,0.02,Wunderground v.1.13,2013-06-01 18:25:00,
2013-06-01 12:35:00,62.9,44.0,29.91,North,10,9.0,9.0,50,0.00,,,0.02,Wunderground v.1.13,2013-06-01 18:35:00,
2013-06-01 12:44:00,62.3,43.9,29.91,NNW,335,12.0,17.0,51,0.00,,,0.02,Wunderground v.1.13,2013-06-01 18:44:00,
2013-06-01 12:50:00,62.4,43.5,29.91,NE,35,13.0,13.0,50,0.00,,,0.02,Wunderground v.1.13,2013-06-01 18:50:00,
2013-06-01 12:55:00,62.7,43.8,29.91,North,351,12.0,12.0,50,0.00,,,0.02,Wunderground v.1.13,2013-06-01 18:55:00,
2013-06-01 13:00:00,62.9,44.0,29.91,NNE,25,10.0,10.0,50,0.00,,,0.02,Wunderground v.1.13,2013-06-01 19:00:00,
2013-06-01 13:05:00,62.7,44.3,29.91,NNW,340,10.0,10.0,51,0.00,,,0.02,Wunderground v.1.13,2013-06-01 19:05:00,
2013-06-01 13:09:00,63.1,44.2,29.91,NE,36,11.0,14.0,50,0.00,,,0.02,Wunderground v.1.13,2013-06-01 19:09:00,
2013-06-01 13:20:00,64.0,43.9,29.92,North,360,8.0,14.0,48,0.00,,,0.02,Wunderground v.1.13,2013-06-01 19:20:00,
2013-06-01 13:24:00,64.0,42.8,29.92,NE,37,8.0,14.0,46,0.00,,,0.02,Wunderground v.1.13,2013-06-01 19:24:00,
2013-06-01 13:29:00,64.3,44.2,29.92,NNW,339,8.0,8.0,48,0.00,,,0.02,Wunderground v.1.13,2013-06-01 19:29:00,
2013-06-01 13:34:00,64.7,43.4,29.91,WNW,302,8.0,14.0,46,0.00,,,0.02,Wunderground v.1.13,2013-06-01 19:34:00,
2013-06-01 13:45:00,64.8,42.9,29.91,NNW,340,9.0,9.0,45,0.00,,,0.02,Wunderground v.1.13,2013-06-01 19:45:00,
2013-06-01 13:50:00,65.6,43.1,29.91,North,360,9.0,14.0,44,0.00,,,0.02,Wunderground v.1.13,2013-06-01 19:50:00,
2013-06-01 13:55:00,65.2,42.7,29.91,North,350,8.0,14.0,44,0.00,,,0.02,Wunderground v.1.13,2013-06-01 19:55:00,
2013-06-01 13:59:00,65.3,42.2,29.91,North,360,9.0,9.0,43,0.00,,,0.02,Wunderground v.1.13,2013-06-01 19:59:00,
2013-06-01 14:04:00,65.8,42.1,29.91,NW,319,10.0,14.0,42,0.00,,,0.02,Wunderground v.1.13,2013-06-01 20:04:00,
2013-06-01 14:09:00,65.0,41.9,29.91,North,9,9.0,9.0,43,0.00,,,0.02,Wunderground v.1.13,2013-06-01 20:09:00,
2013-06-01 14:15:00,64.5,42.1,29.91,NNW,348,7.0,7.0,44,0.00,,,0.02,Wunderground v.1.13,2013-06-01 20:15:00,
2013-06-01 14:20:00,65.2,42.7,29.91,NNW,346,6.0,6.0,44,0.00,,,0.02,Wunderground v.1.13,2013-06-01 20:20:00,
2013-06-01 14:25:00,65.3,42.8,29.91,NNE,20,6.0,14.0,44,0.00,,,0.02,Wunderground v.1.13,2013-06-01 20:25:00,
2013-06-01 14:29:00,64.7,42.3,29.91,North,360,6.0,14.0,44,0.00,,,0.02,Wunderground v.1.13,2013-06-01 20:29:00,
2013-06-01 14:34:00,64.0,42.2,29.91,North,360,8.0,15.0,45,0.00,,,0.02,Wunderground v.1.13,2013-06-01 20:34:00,
2013-06-01 14:39:00,65.0,42.5,29.91,NNE,26,9.0,9.0,44,0.00,,,0.02,Wunderground v.1.13,2013-06-01 20:39:00,
2013-06-01 14:44:00,65.2,42.7,29.91,North,360,8.0,8.0,44,0.00,,,0.02,Wunderground v.1.13,2013-06-01 20:44:00,
2013-06-01 14:50:00,65.6,41.9,29.91,NNW,333,8.0,17.0,42,0.00,,,0.02,Wunderground v.1.13,2013-06-01 20:50:00,
2013-06-01 14:55:00,66.0,42.9,29.91,WNW,293,9.0,14.0,43,0.00,,,0.02,Wunderground v.1.13,2013-06-01 20:55:00,
2013-06-01 14:59:00,65.3,42.2,29.91,North,351,9.0,9.0,43,0.00,,,0.02,Wunderground v.1.13,2013-06-01 20:59:00,
2013-06-01 15:04:00,65.8,40.8,29.91,NW,311,8.0,15.0,40,0.00,,,0.02,Wunderground v.1.13,2013-06-01 21:04:00,
2013-06-01 15:09:00,65.2,40.9,29.91,North,360,8.0,14.0,41,0.00,,,0.02,Wunderground v.1.13,2013-06-01 21:09:00,
2013-06-01 15:15:00,65.0,40.1,29.91,NNW,342,10.0,10.0,40,0.00,,,0.02,Wunderground v.1.13,2013-06-01 21:15:00,
2013-06-01 15:20:00,65.0,39.4,29.92,NNE,13,10.0,14.0,39,0.00,,,0.02,Wunderground v.1.13,2013-06-01 21:20:00,
2013-06-01 15:29:00,65.2,38.9,29.92,NW,325,9.0,9.0,38,0.00,,,0.02,Wunderground v.1.13,2013-06-01 21:29:00,
2013-06-01 15:34:00,66.0,39.7,29.92,NW,309,11.0,15.0,38,0.00,,,0.02,Wunderground v.1.13,2013-06-01 21:34:00,
2013-06-01 15:39:00,66.0,39.0,29.92,NNW,329,9.0,14.0,37,0.00,,,0.02,Wunderground v.1.13,2013-06-01 21:39:00,
2013-06-01 15:45:00,65.5,40.5,29.92,NNW,337,8.0,14.0,40,0.00,,,0.02,Wunderground v.1.13,2013-06-01 21:45:00,
2013-06-01 15:50:00,66.6,38.8,29.91,NNW,330,9.0,17.0,36,0.00,,,0.02,Wunderground v.1.13,2013-06-01 21:50:00,
2013-06-01 15:55:00,66.6,40.2,29.91,NNW,344,10.0,10.0,38,0.00,,,0.02,Wunderground v.1.13,2013-06-01 21:55:00,
2013-06-01 15:59:00,66.6,38.1,29.91,NNE,14,10.0,14.0,35,0.00,,,0.02,Wunderground v.1.13,2013-06-01 21:59:00,
2013-06-01 16:09:00,67.1,38.5,29.92,NNW,342,9.0,14.0,35,0.00,,,0.02,Wunderground v.1.13,2013-06-01 22:09:00,
2013-06-01 16:15:00,66.6,38.8,29.92,NNW,340,7.0,14.0,36,0.00,,,0.02,Wunderground v.1.13,2013-06-01 22:15:00,
2013-06-01 16:20:00,66.8,37.5,29.92,NNW,335,9.0,14.0,34,0.00,,,0.02,Wunderground v.1.13,2013-06-01 22:20:00,
2013-06-01 16:25:00,67.1,39.2,29.92,NNW,344,10.0,14.0,36,0.00,,,0.02,Wunderground v.1.13,2013-06-01 22:25:00,
2013-06-01 16:29:00,67.3,37.2,29.92,NNW,330,9.0,21.0,33,0.00,,,0.02,Wunderground v.1.13,2013-06-01 22:29:00,
2013-06-01 16:40:00,67.3,38.0,29.92,NNE,19,10.0,10.0,34,0.00,,,0.02,Wunderground v.1.13,2013-06-01 22:40:00,
2013-06-01 16:45:00,67.6,38.2,29.92,NNE,12,9.0,14.0,34,0.00,,,0.02,Wunderground v.1.13,2013-06-01 22:45:00,
2013-06-01 16:50:00,67.6,36.7,29.92,North,351,7.0,7.0,32,0.00,,,0.02,Wunderground v.1.13,2013-06-01 22:50:00,
2013-06-01 16:55:00,66.9,37.6,29.92,North,360,9.0,9.0,34,0.00,,,0.02,Wunderground v.1.13,2013-06-01 22:55:00,
2013-06-01 16:59:00,66.9,37.6,29.92,NNE,23,8.0,8.0,34,0.00,,,0.02,Wunderground v.1.13,2013-06-01 22:59:00,
2013-06-01 17:05:00,67.1,37.8,29.92,NNW,334,7.0,14.0,34,0.00,,,0.02,Wunderground v.1.13,2013-06-01 23:05:00,
2013-06-01 17:10:00,66.8,36.8,29.92,WNW,303,8.0,14.0,33,0.00,,,0.02,Wunderground v.1.13,2013-06-01 23:10:00,
2013-06-01 17:15:00,66.8,37.5,29.92,NNE,29,8.0,14.0,34,0.00,,,0.02,Wunderground v.1.13,2013-06-01 23:15:00,
2013-06-01 17:20:00,66.8,37.5,29.92,NNW,342,8.0,14.0,34,0.00,,,0.02,Wunderground v.1.13,2013-06-01 23:20:00,
2013-06-01 17:24:00,66.9,37.6,29.92,NNE,19,7.0,14.0,34,0.00,,,0.02,Wunderground v.1.13,2013-06-01 23:24:00,
2013-06-01 17:34:00,67.1,38.5,29.92,North,350,6.0,14.0,35,0.00,,,0.02,Wunderground v.1.13,2013-06-01 23:34:00,
2013-06-01 17:40:00,66.8,37.5,29.92,NW,311,7.0,14.0,34,0.00,,,0.02,Wunderground v.1.13,2013-06-01 23:40:00,
2013-06-01 17:45:00,66.6,37.3,29.92,North,5,7.0,7.0,34,0.00,,,0.02,Wunderground v.1.13,2013-06-01 23:45:00,
2013-06-01 17:54:00,66.6,35.8,29.91,NNE,30,7.0,14.0,32,0.00,,,0.02,Wunderground v.1.13,2013-06-01 23:54:00,
2013-06-01 18:00:00,66.6,36.6,29.91,North,351,5.0,14.0,33,0.00,,,0.02,Wunderground v.1.13,2013-06-02 00:00:00,
2013-06-01 18:10:00,66.3,36.3,29.92,North,351,6.0,6.0,33,0.00,,,0.02,Wunderground v.1.13,2013-06-02 00:10:00,
2013-06-01 18:14:00,66.4,35.6,29.92,NNW,336,4.0,14.0,32,0.00,,,0.02,Wunderground v.1.13,2013-06-02 00:14:00,
2013-06-01 18:19:00,66.1,33.7,29.92,North,10,5.0,5.0,30,0.00,,,0.02,Wunderground v.1.13,2013-06-02 00:19:00,
2013-06-01 18:24:00,66.1,34.6,29.92,North,360,5.0,5.0,31,0.00,,,0.02,Wunderground v.1.13,2013-06-02 00:24:00,
2013-06-01 18:29:00,66.0,35.3,29.92,NNW,331,3.0,3.0,32,0.00,,,0.02,Wunderground v.1.13,2013-06-02 00:29:00,
2013-06-01 18:35:00,65.8,34.3,29.92,North,360,3.0,14.0,31,0.00,,,0.02,Wunderground v.1.13,2013-06-02 00:35:00,
2013-06-01 18:44:00,65.0,36.7,29.92,North,360,5.0,5.0,35,0.00,,,0.02,Wunderground v.1.13,2013-06-02 00:44:00,
2013-06-01 18:50:00,64.7,35.7,29.93,North,360,6.0,6.0,34,0.00,,,0.02,Wunderground v.1.13,2013-06-02 00:50:00,
2013-06-01 18:55:00,64.5,36.2,29.93,NNE,22,4.0,4.0,35,0.00,,,0.02,Wunderground v.1.13,2013-06-02 00:55:00,
2013-06-01 19:00:00,64.3,36.8,29.93,NNE,17,2.0,14.0,36,0.00,,,0.02,Wunderground v.1.13,2013-06-02 01:00:00,
2013-06-01 19:10:00,63.7,36.9,29.93,NNE,14,2.0,2.0,37,0.00,,,0.02,Wunderground v.1.13,2013-06-02 01:10:00,
2013-06-01 19:14:00,63.4,36.0,29.93,NNE,13,1.0,1.0,36,0.00,,,0.02,Wunderground v.1.13,2013-06-02 01:14:00,
2013-06-01 19:19:00,63.2,37.2,29.94,NNE,17,1.0,1.0,38,0.00,,,0.02,Wunderground v.1.13,2013-06-02 01:19:00,
2013-06-01 19:24:00,62.7,38.0,29.94,NNE,18,0.0,14.0,40,0.00,,,0.02,Wunderground v.1.13,2013-06-02 01:24:00,
2013-06-01 19:29:00,62.4,38.4,29.94,NNE,13,0.0,14.0,41,0.00,,,0.02,Wunderground v.1.13,2013-06-02 01:29:00,
2013-06-01 19:34:00,62.1,38.1,29.94,NNE,25,0.0,14.0,41,0.00,,,0.02,Wunderground v.1.13,2013-06-02 01:34:00,
2013-06-01 19:40:00,61.6,38.3,29.94,North,10,0.0,14.0,42,0.00,,,0.02,Wunderground v.1.13,2013-06-02 01:40:00,
2013-06-01 19:45:00,61.2,39.1,29.94,NNE,18,0.0,14.0,44,0.00,,,0.02,Wunderground v.1.13,2013-06-02 01:45:00,
2013-06-01 19:49:00,60.7,38.6,29.94,NNE,18,0.0,14.0,44,0.00,,,0.02,Wunderground v.1.13,2013-06-02 01:49:00,
2013-06-01 19:54:00,60.1,39.2,29.94,NNE,17,0.0,14.0,46,0.00,,,0.02,Wunderground v.1.13,2013-06-02 01:54:00,
2013-06-01 20:05:00,58.7,40.1,29.94,NNE,17,0.0,14.0,50,0.00,,,0.02,Wunderground v.1.13,2013-06-02 02:05:00,
2013-06-01 20:14:00,57.5,40.0,29.94,NNE,17,0.0,14.0,52,0.00,,,0.02,Wunderground v.1.13,2013-06-02 02:14:00,
2013-06-01 20:19:00,56.9,39.9,29.94,NNE,17,0.0,14.0,53,0.00,,,0.02,Wunderground v.1.13,2013-06-02 02:19:00,
2013-06-01 20:25:00,56.5,40.0,29.94,NNE,17,0.0,14.0,54,0.00,,,0.02,Wunderground v.1.13,2013-06-02 02:25:00,
2013-06-01 20:30:00,56.2,39.8,29.94,NNE,17,0.0,14.0,54,0.00,,,0.02,Wunderground v.1.13,2013-06-02 02:30:00,
2013-06-01 20:35:00,55.9,40.0,29.95,NNE,17,0.0,14.0,55,0.00,,,0.02,Wunderground v.1.13,2013-06-02 02:35:00,
2013-06-01 20:39:00,55.6,40.1,29.95,NNE,17,0.0,14.0,56,0.00,,,0.02,Wunderground v.1.13,2013-06-02 02:39:00,
2013-06-01 20:49:00,54.7,40.2,29.96,NNE,17,0.0,14.0,58,0.00,,,0.02,Wunderground v.1.13,2013-06-02 02:49:00,
2013-06-01 20:55:00,54.2,40.2,29.96,NNE,17,0.0,14.0,59,0.00,,,0.02,Wunderground v.1.13,2013-06-02 02:55:00,
2013-06-01 21:00:00,53.8,40.2,29.96,NNE,17,0.0,14.0,60,0.00,,,0.02,Wunderground v.1.13,2013-06-02 03:00:00,
2013-06-01 21:05:00,53.3,40.2,29.96,NNE,17,0.0,14.0,61,0.00,,,0.02,Wunderground v.1.13,2013-06-02 03:05:00,
2013-06-01 21:09:00,53.1,40.4,29.96,NNE,17,0.0,14.0,62,0.00,,,0.02,Wunderground v.1.13,2013-06-02 03:09:00,
2013-06-01 21:14:00,52.8,40.1,29.96,NNE,17,0.0,14.0,62,0.00,,,0.02,Wunderground v.1.13,2013-06-02 03:14:00,
2013-06-01 21:24:00,52.3,40.5,29.97,NNE,17,0.0,14.0,64,0.00,,,0.02,Wunderground v.1.13,2013-06-02 03:24:00,
2013-06-01 21:30:00,52.0,40.2,29.97,NNE,17,0.0,14.0,64,0.00,,,0.02,Wunderground v.1.13,2013-06-02 03:30:00,
2013-06-01 21:39:00,51.7,40.3,29.98,NNE,17,0.0,14.0,65,0.00,,,0.02,Wunderground v.1.13,2013-06-02 03:39:00,
2013-06-01 21:44:00,51.4,40.0,29.98,NNE,17,0.0,14.0,65,0.00,,,0.02,Wunderground v.1.13,2013-06-02 03:44:00,
2013-06-01 21:50:00,51.3,39.9,29.98,NNE,17,0.0,14.0,65,0.00,,,0.02,Wunderground v.1.13,2013-06-02 03:50:00,
2013-06-01 21:55:00,51.3,39.9,29.98,NNE,17,0.0,14.0,65,0.00,,,0.02,Wunderground v.1.13,2013-06-02 03:55:00,
2013-06-01 22:00:00,51.3,39.9,29.98,NNE,17,0.0,14.0,65,0.00,,,0.02,Wunderground v.1.13,2013-06-02 04:00:00,
2013-06-01 22:04:00,51.1,39.7,29.98,NNE,17,0.0,14.0,65,0.00,,,0.02,Wunderground v.1.13,2013-06-02 04:04:00,
2013-06-01 22:09:00,51.1,39.7,29.98,NNE,17,0.0,14.0,65,0.00,,,0.02,Wunderground v.1.13,2013-06-02 04:09:00,
2013-06-01 22:14:00,51.0,40.0,29.98,NNE,17,0.0,14.0,66,0.00,,,0.02,Wunderground v.1.13,2013-06-02 04:14:00,
2013-06-01 22:20:00,50.8,39.8,29.99,NNE,17,0.0,14.0,66,0.00,,,0.02,Wunderground v.1.13,2013-06-02 04:20:00,
2013-06-01 22:25:00,50.7,40.1,29.99,NNE,17,0.0,14.0,67,0.00,,,0.02,Wunderground v.1.13,2013-06-02 04:25:00,
2013-06-01 22:29:00,50.5,39.9,29.99,NNE,17,0.0,14.0,67,0.00,,,0.02,Wunderground v.1.13,2013-06-02 04:29:00,
2013-06-01 22:34:00,50.1,39.9,29.99,NNE,17,0.0,14.0,68,0.00,,,0.02,Wunderground v.1.13,2013-06-02 04:34:00,
2013-06-01 22:39:00,49.8,40.0,29.99,NNE,17,0.0,14.0,69,0.00,,,0.02,Wunderground v.1.13,2013-06-02 04:39:00,
2013-06-01 22:45:00,49.2,39.8,29.99,NNE,17,0.0,14.0,70,0.00,,,0.02,Wunderground v.1.13,2013-06-02 04:45:00,
2013-06-01 22:49:00,48.9,39.9,29.99,NNE,17,0.0,14.0,71,0.00,,,0.02,Wunderground v.1.13,2013-06-02 04:49:00,
2013-06-01 22:54:00,48.5,39.9,29.99,NNE,17,0.0,14.0,72,0.00,,,0.02,Wunderground v.1.13,2013-06-02 04:54:00,
2013-06-01 23:04:00,47.3,39.4,29.99,NNE,17,0.0,14.0,74,0.00,,,0.02,Wunderground v.1.13,2013-06-02 05:04:00,
2013-06-01 23:10:00,46.8,39.3,29.99,NNE,17,0.0,14.0,75,0.00,,,0.02,Wunderground v.1.13,2013-06-02 05:10:00,
2013-06-01 23:15:00,46.7,39.5,29.99,NNE,17,0.0,14.0,76,0.00,,,0.02,Wunderground v.1.13,2013-06-02 05:15:00,
2013-06-01 23:19:00,46.4,39.2,30.00,NNE,17,0.0,14.0,76,0.00,,,0.02,Wunderground v.1.13,2013-06-02 05:19:00,
2013-06-01 23:24:00,46.2,39.4,30.00,NNE,17,0.0,14.0,77,0.00,,,0.02,Wunderground v.1.13,2013-06-02 05:24:00,
2013-06-01 23:30:00,46.1,39.3,30.00,NNE,17,0.0,14.0,77,0.00,,,0.02,Wunderground v.1.13,2013-06-02 05:30:00,
2013-06-01 23:35:00,46.2,39.4,30.00,NNE,17,0.0,14.0,77,0.00,,,0.02,Wunderground v.1.13,2013-06-02 05:35:00,
2013-06-01 23:39:00,46.2,39.4,30.00,NNE,17,0.0,14.0,77,0.00,,,0.02,Wunderground v.1.13,2013-06-02 05:39:00,
2013-06-01 23:44:00,46.0,39.5,30.00,NNE,17,0.0,14.0,78,0.00,,,0.02,Wunderground v.1.13,2013-06-02 05:44:00,
2013-06-01 23:49:00,45.8,39.7,30.00,NNE,17,0.0,14.0,79,0.00,,,0.02,Wunderground v.1.13,2013-06-02 05:49:00,
2013-06-01 23:54:00,45.8,39.7,30.00,NNE,17,0.0,14.0,79,0.00,,,0.02,Wunderground v.1.13,2013-06-02 05:54:00,